| time (UTC) | temp F | wind direction | speed MPH | gust MPH | rain 1hr in | rain 24hr in | rain mn in | humidity % | barometer mb |
| 20260504231209 | 56 | 194 | 5.0 | 13.0 | 0.00 | 0.00 | 0.00 | 50 | 1013.7 |
| 20260504230709 | 56 | 171 | 4.0 | 13.0 | 0.00 | 0.00 | 0.00 | 53 | 1013.8 |
| 20260504230702 | 57 | 193 | 4.0 | 9.0 | 0.00 | 0.00 | 0.00 | 53 | 1014.0 |
| 20260504230658 | 55 | 196 | 3.0 | 8.0 | 0.00 | 0.00 | 0.00 | 56 | 1013.9 |
| 20260504230654 | 56 | 151 | 4.0 | 9.0 | 0.00 | 0.00 | 0.00 | 52 | 1014.0 |
| 20260504224705 | 56 | 150 | 4.0 | 9.0 | 0.00 | 0.00 | 0.00 | 54 | 1013.9 |
| 20260504224205 | 58 | 146 | 5.0 | 11.0 | 0.00 | 0.00 | 0.00 | 52 | 1014.1 |
| 20260504223705 | 59 | 149 | 7.0 | 11.0 | 0.00 | 0.00 | 0.00 | 49 | 1014.2 |
| 20260504223656 | 58 | 132 | 7.0 | 12.0 | 0.00 | 0.00 | 0.00 | 49 | 1014.4 |
| 20260504222705 | 58 | 140 | 7.0 | 13.0 | 0.00 | 0.00 | 0.00 | 51 | 1014.4 |
| 20260504222205 | 58 | 121 | 8.0 | 14.0 | 0.00 | 0.00 | 0.00 | 52 | 1014.5 |
| 20260504221705 | 58 | 150 | 7.0 | 14.0 | 0.00 | 0.00 | 0.00 | 51 | 1014.5 |
| 20260504221205 | 58 | 140 | 7.0 | 16.0 | 0.00 | 0.00 | 0.00 | 53 | 1014.5 |
| 20260504220705 | 58 | 169 | 5.0 | 16.0 | 0.00 | 0.00 | 0.00 | 52 | 1014.5 |
| 20260504220429 | 58 | 180 | 5.0 | 11.0 | 0.00 | 0.00 | 0.00 | 53 | 1014.6 |
| 20260504215706 | 58 | 157 | 7.0 | 12.0 | 0.00 | 0.00 | 0.00 | 52 | 1014.6 |
| 20260504215205 | 58 | 142 | 8.0 | 13.0 | 0.00 | 0.00 | 0.00 | 53 | 1014.7 |
| 20260504214704 | 58 | 158 | 9.0 | 14.0 | 0.00 | 0.00 | 0.00 | 53 | 1014.7 |
| 20260504214202 | 57 | 148 | 7.0 | 14.0 | 0.00 | 0.00 | 0.00 | 54 | 1014.8 |
| 20260504214152 | 56 | 124 | 5.0 | 11.0 | 0.00 | 0.00 | 0.00 | 57 | 1014.8 |
| 20260504213202 | 56 | 165 | 4.0 | 11.0 | 0.00 | 0.00 | 0.00 | 59 | 1015.0 |
| 20260504212702 | 55 | 159 | 3.0 | 9.0 | 0.00 | 0.00 | 0.00 | 59 | 1015.0 |
| 20260504212203 | 55 | 153 | 4.0 | 9.0 | 0.00 | 0.00 | 0.00 | 61 | 1015.0 |
| 20260504211702 | 55 | 174 | 4.0 | 9.0 | 0.00 | 0.00 | 0.00 | 59 | 1015.0 |
| 20260504211202 | 54 | 205 | 4.0 | 10.0 | 0.00 | 0.00 | 0.00 | 61 | 1015.0 |
| 20260504210702 | 55 | 130 | 4.0 | 10.0 | 0.00 | 0.00 | 0.00 | 61 | 1015.1 |
| 20260504210423 | 55 | 139 | 3.0 | 8.0 | 0.00 | 0.00 | 0.00 | 60 | 1015.3 |
| 20260504205702 | 55 | 156 | 3.0 | 7.0 | 0.00 | 0.00 | 0.00 | 60 | 1015.1 |
| 20260504205203 | 57 | 121 | 4.0 | 9.0 | 0.00 | 0.00 | 0.00 | 57 | 1015.1 |
| 20260504204925 | 56 | 133 | 4.0 | 9.0 | 0.00 | 0.00 | 0.00 | 57 | 1015.3 |
| 20260504204204 | 58 | 150 | 4.0 | 11.0 | 0.00 | 0.00 | 0.00 | 54 | 1015.4 |
| 20260504203704 | 58 | 171 | 7.0 | 13.0 | 0.00 | 0.00 | 0.00 | 53 | 1015.3 |
| 20260504203425 | 58 | 133 | 7.0 | 13.0 | 0.00 | 0.00 | 0.00 | 52 | 1015.1 |
| 20260504202704 | 58 | 146 | 4.0 | 10.0 | 0.00 | 0.00 | 0.00 | 52 | 1015.1 |
| 20260504202203 | 58 | 133 | 4.0 | 10.0 | 0.00 | 0.00 | 0.00 | 52 | 1015.1 |
| 20260504201701 | 58 | 124 | 4.0 | 11.0 | 0.00 | 0.00 | 0.00 | 51 | 1015.0 |
| 20260504201205 | 59 | 157 | 4.0 | 12.0 | 0.00 | 0.00 | 0.00 | 51 | 1014.9 |
| 20260504200701 | 59 | 134 | 5.0 | 12.0 | 0.00 | 0.00 | 0.00 | 50 | 1015.0 |
| 20260504200435 | 59 | 140 | 4.0 | 9.0 | 0.00 | 0.00 | 0.00 | 51 | 1014.9 |
| 20260504195927 | 59 | 136 | 5.0 | 10.0 | 0.00 | 0.00 | 0.00 | 51 | 1014.8 |
| 20260504195201 | 59 | 165 | 5.0 | 10.0 | 0.00 | 0.00 | 0.00 | 51 | 1014.8 |
| 20260504194701 | 59 | 166 | 7.0 | 12.0 | 0.00 | 0.00 | 0.00 | 51 | 1014.9 |
| 20260504194425 | 59 | 146 | 7.0 | 12.0 | 0.00 | 0.00 | 0.00 | 51 | 1014.8 |
| 20260504193702 | 59 | 148 | 7.0 | 12.0 | 0.00 | 0.00 | 0.00 | 50 | 1014.9 |
| 20260504193427 | 59 | 146 | 5.0 | 11.0 | 0.00 | 0.00 | 0.00 | 50 | 1014.8 |
| 20260504192701 | 59 | 164 | 4.0 | 10.0 | 0.00 | 0.00 | 0.00 | 52 | 1014.9 |
| 20260504192201 | 59 | 156 | 5.0 | 12.0 | 0.00 | 0.00 | 0.00 | 50 | 1014.8 |
| 20260504191927 | 59 | 130 | 5.0 | 12.0 | 0.00 | 0.00 | 0.00 | 50 | 1014.8 |
| 20260504191202 | 59 | 146 | 5.0 | 10.0 | 0.00 | 0.00 | 0.00 | 52 | 1014.8 |
| 20260504190701 | 59 | 164 | 4.0 | 10.0 | 0.00 | 0.00 | 0.00 | 51 | 1014.7 |
| 20260504190201 | 59 | 164 | 5.0 | 12.0 | 0.00 | 0.00 | 0.00 | 53 | 1014.7 |
| 20260504185702 | 60 | 160 | 7.0 | 12.0 | 0.00 | 0.00 | 0.00 | 49 | 1014.7 |
| 20260504185201 | 60 | 131 | 5.0 | 10.0 | 0.00 | 0.00 | 0.00 | 50 | 1014.7 |
| 20260504184702 | 60 | 147 | 7.0 | 13.0 | 0.00 | 0.00 | 0.00 | 49 | 1014.6 |
| 20260504184651 | 60 | 175 | 7.0 | 13.0 | 0.00 | 0.00 | 0.00 | 47 | 1014.6 |
| 20260504183701 | 60 | 146 | 7.0 | 13.0 | 0.00 | 0.00 | 0.00 | 47 | 1014.5 |
| 20260504183201 | 60 | 142 | 7.0 | 13.0 | 0.00 | 0.00 | 0.00 | 47 | 1014.6 |
| 20260504182701 | 60 | 128 | 5.0 | 11.0 | 0.00 | 0.00 | 0.00 | 48 | 1014.5 |
| 20260504182201 | 60 | 150 | 7.0 | 11.0 | 0.00 | 0.00 | 0.00 | 49 | 1014.5 |
| 20260504181701 | 60 | 161 | 5.0 | 11.0 | 0.00 | 0.00 | 0.00 | 49 | 1014.5 |
| 20260504181201 | 59 | 179 | 4.0 | 9.0 | 0.00 | 0.00 | 0.00 | 50 | 1014.5 |
| 20260504180701 | 60 | 159 | 4.0 | 9.0 | 0.00 | 0.00 | 0.00 | 48 | 1014.5 |
| 20260504180202 | 59 | 150 | 5.0 | 9.0 | 0.00 | 0.00 | 0.00 | 50 | 1014.4 |
| 20260504175701 | 61 | 152 | 5.0 | 10.0 | 0.00 | 0.00 | 0.00 | 47 | 1014.4 |
| 20260504175202 | 61 | 178 | 5.0 | 10.0 | 0.00 | 0.00 | 0.00 | 48 | 1014.4 |
| 20260504174701 | 62 | 153 | 7.0 | 11.0 | 0.00 | 0.00 | 0.00 | 45 | 1014.4 |
| 20260504174201 | 62 | 106 | 8.0 | 15.0 | 0.00 | 0.00 | 0.00 | 45 | 1014.2 |
| 20260504173700 | 62 | 154 | 8.0 | 15.0 | 0.00 | 0.00 | 0.00 | 44 | 1014.1 |
| 20260504173204 | 62 | 141 | 7.0 | 14.0 | 0.00 | 0.00 | 0.00 | 43 | 1014.4 |
| 20260504172927 | 63 | 152 | 5.0 | 13.0 | 0.00 | 0.00 | 0.00 | 44 | 1014.2 |
| 20260504172420 | 63 | 142 | 5.0 | 12.0 | 0.00 | 0.00 | 0.00 | 42 | 1014.1 |
| 20260504171649 | 62 | 53 | 5.0 | 12.0 | 0.00 | 0.00 | 0.00 | 43 | 1014.4 |
| 20260504171142 | 63 | 154 | 5.0 | 11.0 | 0.00 | 0.00 | 0.00 | 43 | 1014.4 |
| 20260504170634 | 62 | 137 | 5.0 | 10.0 | 0.00 | 0.00 | 0.00 | 45 | 1014.2 |
| 20260504170135 | 62 | 142 | 7.0 | 11.0 | 0.00 | 0.00 | 0.00 | 46 | 1014.4 |
| 20260504160132 | 64 | 159 | 7.0 | 14.0 | 0.00 | 0.00 | 0.00 | 42 | 1014.1 |
| 20260504151131 | 66 | 132 | 8.0 | 14.0 | 0.00 | 0.00 | 0.00 | 37 | 1014.1 |
| 20260504150629 | 66 | 128 | 8.0 | 15.0 | 0.00 | 0.00 | 0.00 | 37 | 1014.4 |
| 20260504150129 | 66 | 115 | 7.0 | 15.0 | 0.00 | 0.00 | 0.00 | 36 | 1014.1 |
| 20260504140620 | 67 | 173 | 7.0 | 18.0 | 0.00 | 0.00 | 0.00 | 33 | 1014.1 |
| 20260504140117 | 67 | 115 | 7.0 | 18.0 | 0.00 | 0.00 | 0.00 | 32 | 1014.2 |
| 20260504130617 | 69 | 199 | 5.0 | 14.0 | 0.00 | 0.00 | 0.00 | 32 | 1014.4 |
| 20260504130117 | 69 | 192 | 7.0 | 14.0 | 0.00 | 0.00 | 0.00 | 32 | 1014.5 |
| 20260504120136 | 69 | 81 | 7.0 | 15.0 | 0.00 | 0.00 | 0.00 | 34 | 1014.8 |
| 20260504120132 | 69 | 177 | 8.0 | 15.0 | 0.00 | 0.00 | 0.00 | 34 | 1014.8 |
| 20260504110609 | 68 | 229 | 8.0 | 19.0 | 0.00 | 0.00 | 0.00 | 34 | 1015.4 |
| 20260504110109 | 69 | 161 | 8.0 | 22.0 | 0.00 | 0.00 | 0.00 | 35 | 1015.4 |
| 20260504100603 | 68 | 200 | 7.0 | 14.0 | 0.00 | 0.00 | 0.00 | 34 | 1015.7 |
| 20260504100108 | 67 | 201 | 5.0 | 13.0 | 0.00 | 0.00 | 0.00 | 33 | 1015.8 |
| 20260504081531 | 65 | 205 | 5.0 | 16.0 | 0.00 | 0.00 | 0.00 | 39 | 1016.3 |
| 20260504081030 | 64 | 213 | 3.0 | 16.0 | 0.00 | 0.00 | 0.00 | 41 | 1016.4 |
| 20260504080525 | 63 | 300 | 2.0 | 4.0 | 0.00 | 0.00 | 0.00 | 45 | 1016.4 |
| 20260504050451 | 46 | 150 | 0.0 | 2.0 | 0.00 | 0.00 | 0.00 | 78 | 1016.5 |
| 20260504045951 | 46 | 150 | 0.0 | 0.0 | 0.00 | 0.00 | 0.00 | 78 | 1016.5 |
| 20260504045720 | 45 | 150 | 0.0 | 0.0 | 0.00 | 0.00 | 0.00 | 79 | 1016.6 |
| 20260504045218 | 45 | 150 | 0.0 | 0.0 | 0.00 | 0.00 | 0.00 | 78 | 1016.6 |
| 20260504044449 | 45 | 150 | 0.0 | 2.0 | 0.00 | 0.00 | 0.00 | 76 | 1016.7 |
| 20260504043950 | 44 | 150 | 0.0 | 2.0 | 0.00 | 0.00 | 0.00 | 78 | 1016.7 |
| 20260504043715 | 44 | 150 | 0.0 | 0.0 | 0.00 | 0.00 | 0.00 | 78 | 1016.6 |
| 20260504042950 | 44 | 150 | 0.0 | 0.0 | 0.00 | 0.00 | 0.00 | 77 | 1016.7 |
| 20260504042449 | 44 | 150 | 0.0 | 0.0 | 0.00 | 0.00 | 0.00 | 78 | 1016.7 |
| 20260504041950 | 43 | 150 | 0.0 | 2.0 | 0.00 | 0.00 | 0.00 | 79 | 1016.6 |
| 20260504041935 | 44 | 150 | 0.0 | 2.0 | 0.00 | 0.00 | 0.00 | 78 | 1016.7 |
| 20260504041216 | 44 | 150 | 1.0 | 3.0 | 0.00 | 0.00 | 0.00 | 76 | 1016.6 |
| 20260504040448 | 45 | 150 | 1.0 | 3.0 | 0.00 | 0.00 | 0.00 | 74 | 1016.5 |
| 20260504035944 | 44 | 150 | 0.0 | 2.0 | 0.00 | 0.00 | 0.00 | 76 | 1016.7 |
| 20260504035710 | 44 | 150 | 0.0 | 0.0 | 0.00 | 0.00 | 0.00 | 78 | 1016.6 |
| 20260504034941 | 43 | 150 | 0.0 | 0.0 | 0.00 | 0.00 | 0.00 | 79 | 1016.7 |
| 20260504034439 | 44 | 150 | 0.0 | 0.0 | 0.00 | 0.00 | 0.00 | 75 | 1016.8 |
| 20260504033938 | 45 | 150 | 0.0 | 0.0 | 0.00 | 0.00 | 0.00 | 74 | 1016.8 |
| 20260504033436 | 45 | 150 | 0.0 | 1.0 | 0.00 | 0.00 | 0.00 | 75 | 1016.7 |
| 20260504032934 | 45 | 150 | 0.0 | 2.0 | 0.00 | 0.00 | 0.00 | 76 | 1016.8 |
| 20260504032430 | 45 | 150 | 1.0 | 3.0 | 0.00 | 0.00 | 0.00 | 74 | 1016.8 |
| 20260504032156 | 46 | 150 | 1.0 | 3.0 | 0.00 | 0.00 | 0.00 | 75 | 1016.8 |
| 20260504031427 | 45 | 150 | 1.0 | 3.0 | 0.00 | 0.00 | 0.00 | 75 | 1016.8 |
| 20260504031151 | 46 | 150 | 1.0 | 3.0 | 0.00 | 0.00 | 0.00 | 74 | 1016.8 |
| 20260504030415 | 46 | 150 | 1.0 | 2.0 | 0.00 | 0.00 | 0.00 | 74 | 1016.9 |
| 20260504025915 | 46 | 150 | 1.0 | 2.0 | 0.00 | 0.00 | 0.00 | 75 | 1016.9 |
| 20260504025413 | 46 | 150 | 1.0 | 3.0 | 0.00 | 0.00 | 0.00 | 75 | 1016.8 |
| 20260504024913 | 47 | 150 | 1.0 | 3.0 | 0.00 | 0.00 | 0.00 | 72 | 1016.8 |
| 20260504024413 | 47 | 150 | 1.0 | 3.0 | 0.00 | 0.00 | 0.00 | 72 | 1016.9 |
| 20260504023915 | 47 | 150 | 0.0 | 3.0 | 0.00 | 0.00 | 0.00 | 72 | 1016.8 |
| 20260504023645 | 46 | 150 | 0.0 | 0.0 | 0.00 | 0.00 | 0.00 | 73 | 1016.8 |
| 20260504023137 | 46 | 150 | 0.0 | 3.0 | 0.00 | 0.00 | 0.00 | 74 | 1016.8 |
| 20260504022409 | 47 | 150 | 1.0 | 3.0 | 0.00 | 0.00 | 0.00 | 73 | 1016.8 |
| 20260504021907 | 47 | 150 | 1.0 | 3.0 | 0.00 | 0.00 | 0.00 | 70 | 1016.7 |
| 20260504021407 | 47 | 150 | 1.0 | 3.0 | 0.00 | 0.00 | 0.00 | 72 | 1016.7 |
| 20260504020907 | 47 | 150 | 0.0 | 3.0 | 0.00 | 0.00 | 0.00 | 71 | 1016.7 |
| 20260504020407 | 48 | 150 | 0.0 | 3.0 | 0.00 | 0.00 | 0.00 | 71 | 1016.6 |
| 20260504015907 | 47 | 150 | 0.0 | 0.0 | 0.00 | 0.00 | 0.00 | 70 | 1016.6 |
| 20260504015405 | 47 | 150 | 0.0 | 1.0 | 0.00 | 0.00 | 0.00 | 72 | 1016.6 |
| 20260504014904 | 48 | 150 | 1.0 | 3.0 | 0.00 | 0.00 | 0.00 | 70 | 1016.6 |
| 20260504014403 | 49 | 150 | 1.0 | 3.0 | 0.00 | 0.00 | 0.00 | 69 | 1016.5 |
| 20260504013905 | 48 | 148 | 1.0 | 3.0 | 0.00 | 0.00 | 0.00 | 69 | 1016.6 |
| 20260504013403 | 49 | 96 | 1.0 | 4.0 | 0.00 | 0.00 | 0.00 | 69 | 1016.6 |
| 20260504012900 | 49 | 167 | 1.0 | 4.0 | 0.00 | 0.00 | 0.00 | 66 | 1016.5 |
| 20260504012357 | 50 | 150 | 1.0 | 5.0 | 0.00 | 0.00 | 0.00 | 66 | 1016.6 |
| 20260504011849 | 51 | 146 | 2.0 | 5.0 | 0.00 | 0.00 | 0.00 | 61 | 1016.5 |
| 20260504011343 | 52 | 134 | 3.0 | 8.0 | 0.00 | 0.00 | 0.00 | 59 | 1016.5 |
| 20260504011112 | 52 | 146 | 3.0 | 8.0 | 0.00 | 0.00 | 0.00 | 57 | 1016.4 |
| 20260504010343 | 51 | 151 | 2.0 | 8.0 | 0.00 | 0.00 | 0.00 | 61 | 1016.5 |
| 20260504005841 | 51 | 169 | 1.0 | 8.0 | 0.00 | 0.00 | 0.00 | 61 | 1016.4 |
| 20260504005340 | 52 | 178 | 2.0 | 5.0 | 0.00 | 0.00 | 0.00 | 61 | 1016.4 |
| 20260504004837 | 54 | 207 | 2.0 | 5.0 | 0.00 | 0.00 | 0.00 | 55 | 1016.4 |
| 20260504004559 | 55 | 150 | 3.0 | 11.0 | 0.00 | 0.00 | 0.00 | 55 | 1016.3 |
| 20260504003835 | 56 | 152 | 4.0 | 11.0 | 0.00 | 0.00 | 0.00 | 51 | 1016.4 |
| 20260504003607 | 56 | 190 | 4.0 | 11.0 | 0.00 | 0.00 | 0.00 | 51 | 1016.4 |
| 20260504003103 | 55 | 163 | 4.0 | 11.0 | 0.00 | 0.00 | 0.00 | 52 | 1016.4 |
| 20260504002333 | 56 | 160 | 5.0 | 12.0 | 0.00 | 0.00 | 0.00 | 52 | 1016.4 |
| 20260504001833 | 57 | 156 | 5.0 | 13.0 | 0.00 | 0.00 | 0.00 | 50 | 1016.5 |
| 20260504001334 | 57 | 180 | 5.0 | 13.0 | 0.00 | 0.00 | 0.00 | 49 | 1016.4 |
| 20260504000833 | 57 | 181 | 4.0 | 11.0 | 0.00 | 0.00 | 0.00 | 48 | 1016.5 |
| 20260504000333 | 58 | 175 | 5.0 | 11.0 | 0.00 | 0.00 | 0.00 | 48 | 1016.4 |
| 20260503235833 | 58 | 198 | 5.0 | 15.0 | 0.00 | 0.00 | 0.00 | 47 | 1016.4 |
| 20260503235333 | 57 | 161 | 5.0 | 15.0 | 0.00 | 0.00 | 0.00 | 48 | 1016.5 |
| 20260503234833 | 57 | 146 | 5.0 | 11.0 | 0.00 | 0.00 | 0.00 | 48 | 1016.4 |
| 20260503234332 | 58 | 206 | 4.0 | 11.0 | 0.00 | 0.00 | 0.00 | 48 | 1016.5 |
| 20260503234057 | 58 | 134 | 4.0 | 10.0 | 0.00 | 0.00 | 0.00 | 47 | 1016.5 |
| 20260503233332 | 58 | 199 | 4.0 | 10.0 | 0.00 | 0.00 | 0.00 | 47 | 1016.4 |
| 20260503232833 | 58 | 181 | 3.0 | 8.0 | 0.00 | 0.00 | 0.00 | 47 | 1016.5 |
| 20260503232333 | 57 | 165 | 3.0 | 9.0 | 0.00 | 0.00 | 0.00 | 48 | 1016.3 |
| 20260503231832 | 57 | 202 | 3.0 | 9.0 | 0.00 | 0.00 | 0.00 | 50 | 1016.4 |